64013000, 5301503, 2016-12-03 00:00:00, 13.35760, 109.26660,   0,  11,   1, -5.00, 1014.90, 15.00, 1,   1, 255, 0.000
64013000, 5301503, 2016-12-03 01:00:00, 13.35760, 109.26660,   0,  10,   1, -5.00, 1015.60, 15.00, 0,  10, 255, 0.000
64013000, 5301503, 2016-12-03 02:00:00, 13.35760, 109.26660,   0,  12,   1, -5.00, 1015.70, 15.00, 1,   8, 255, 0.000
64013000, 5301503, 2016-12-03 03:00:00, 13.35760, 109.26660,   0,  10,   1, -5.00, 1015.50, 15.00, 0,   9, 255, 0.000
64013000, 5301503, 2016-12-03 04:00:00, 13.35760, 109.26660,   0,  10,   1, -5.00, 1015.10, 15.00, 0,   7, 255, 0.000
64013000, 5301503, 2016-12-03 05:00:00, 13.35760, 109.26660,   0,  10,   1, -5.00, 1014.10, 15.00, 1,  12, 255, 0.000
64013000, 5301503, 2016-12-03 06:00:00, 13.35760, 109.26660,   0,  10,   1, -5.00, 1013.30, 15.00, 1,   8, 255, 0.000
64013000, 5301503, 2016-12-03 07:00:00, 13.35760, 109.26660,   0,  11,   1, -5.00, 1012.40, 15.00, 0,   9, 255, 0.000
64013000, 5301503, 2016-12-03 08:00:00, 13.35780, 109.26660,   0,  11,   1, -5.00, 1012.10, 15.00, 0,  10, 255, 0.000
64013000, 5301503, 2016-12-03 09:00:00, 13.35760, 109.26660,   0,  11,   1, -5.00, 1012.30, 15.00, 0,   7, 255, 0.000
64013000, 5301503, 2016-12-03 10:00:00, 13.35760, 109.26660,   0,  11,   1, -5.00, 1012.90, 15.00, 1,   8, 255, 0.000
64013000, 5301503, 2016-12-03 11:00:00, 13.35760, 109.26660,   0,  10,   1, -5.00, 1013.20, 15.00, 1,   1, 255, 0.000
64013000, 5301503, 2016-12-03 12:00:00, 13.35760, 109.26660,   0,  11,   1, -5.00, 1013.80, 15.00, 1,   8, 255, 0.000
64013000, 5301503, 2016-12-03 13:00:00, 13.35760, 109.26660,   0,  11,   1, -5.00, 1013.90, 15.00, 0,   8, 255, 0.000
64013000, 5301503, 2016-12-03 14:00:00, 13.35760, 109.26660,   0,  11,   2, -5.00, 1013.90, 15.00, 0,   8, 255, 0.000
64013000, 5301503, 2016-12-03 15:00:00, 13.35760, 109.26660,   0,  10,   1, -5.00, 1013.80, 15.00, 0,  14, 255, 0.000
64013000, 5301503, 2016-12-03 16:00:00, 13.35760, 109.26660,   0,  10,   1, -5.00, 1013.80, 15.00, 0,   9, 255, 0.000
64013000, 5301503, 2016-12-03 17:00:00, 13.35760, 109.26660,   0,  11,   1, -5.00, 1013.40, 15.00, 0,  10, 255, 0.000
64013000, 5301503, 2016-12-03 18:00:00, 13.35760, 109.26660,   0,  10,   1, -5.00, 1013.00, 15.00, 1,   8, 255, 0.000
64013000, 5301503, 2016-12-03 19:00:00, 13.35760, 109.26660,   0,  11,   1, -5.00, 1012.50, 15.00, 0,  11, 255, 0.000
64013000, 5301503, 2016-12-03 20:00:00, 13.35760, 109.26660,   0,  11,   1, -5.00, 1012.30, 15.00, 0,   7, 255, 0.000
64013000, 5301503, 2016-12-03 21:00:00, 13.35760, 109.26660,   0,  11,   1, -5.00, 1012.40, 15.00, 1,  12, 255, 0.000
64013000, 5301503, 2016-12-03 22:00:00, 13.35760, 109.26660,   0,  11,   1, -5.00, 1012.50, 15.00, 0,   8, 255, 0.000
64013000, 5301503, 2016-12-03 23:00:00, 13.35760, 109.26660,   0,  11,   1, -5.00, 1013.10, 15.00, 0,  11, 255, 0.000
64013000, 5301503, 2016-12-04 00:00:00, 13.35760, 109.26660,   0,  11,   1, -5.00, 1013.80, 15.00, 0,   8, 255, 0.000
64013000, 5301503, 2016-12-04 01:00:00, 13.35760, 109.26660,   0,  11,   1, -5.00, 1014.00, 15.00, 1,  16, 255, 0.000
64013000, 5301503, 2016-12-04 02:00:00, 13.35760, 109.26660,   0,  11,   1, -5.00, 1014.10, 15.00, 1,   9, 255, 0.000
64013000, 5301503, 2016-12-04 03:00:00, 13.35760, 109.26660,   0,  11,   1, -5.00, 1014.00, 15.00, 1,   9, 255, 0.000
64013000, 5301503, 2016-12-04 04:00:00, 13.35760, 109.26660,   0,  10,   1, -5.00, 1014.00, 15.00, 1,   8, 255, 0.000
64013000, 5301503, 2016-12-04 05:00:00, 13.35760, 109.26660,   0,  11,   1, -5.00, 1013.30, 15.00, 0,  11, 255, 0.000
64013000, 5301503, 2016-12-04 06:00:00, 13.35760, 109.26660,   0,  11,   1, -5.00, 1012.30, 15.00, 0,   7, 255, 0.000
64013000, 5301503, 2016-12-04 07:00:00, 13.35760, 109.26660,   0,  11,   1, -5.00, 1011.80, 15.00, 0,  10, 255, 0.000
64013000, 5301503, 2016-12-04 08:00:00, 13.35760, 109.26660,   0,  11,   2, -5.00, 1011.60, 15.00, 0,   8, 255, 0.000
64013000, 5301503, 2016-12-04 09:00:00, 13.35760, 109.26660,   0,  11,   1, -5.00, 1011.90, 15.00, 0,   7, 255, 0.000
64013000, 5301503, 2016-12-04 10:00:00, 13.35760, 109.26660,   0,  11,   1, -5.00, 1012.30, 15.00, 0,   8, 255, 0.000
64013000, 5301503, 2016-12-04 11:00:00, 13.35760, 109.26660,   0,  10,   2, -5.00, 1012.50, 15.00, 0,  11, 255, 0.000
64013000, 5301503, 2016-12-04 12:00:00, 13.35760, 109.26660,   0,  11,   1, -5.00, 1013.10, 15.00, 0,  13, 255, 0.000
64013000, 5301503, 2016-12-04 13:00:00, 13.35760, 109.26660,   0,  11,   1, -5.00, 1013.50, 15.00, 0,   9, 255, 0.000
64013000, 5301503, 2016-12-04 14:00:00, 13.35760, 109.26660,   0,  11,   1, -5.00, 1013.50, 15.00, 0,   1, 255, 0.000
64013000, 5301503, 2016-12-04 15:00:00, 13.35760, 109.26660,   0,  10,   1, -5.00, 1013.30, 15.00, 0,   9, 255, 0.000
64013000, 5301503, 2016-12-04 16:00:00, 13.35760, 109.26660,   0,  10,   2, -5.00, 1012.80, 15.00, 0,   8, 255, 0.000
64013000, 5301503, 2016-12-04 17:00:00, 13.35760, 109.26660,   0,  11,   1, -5.00, 1012.60, 15.00, 1,   7, 255, 0.000
64013000, 5301503, 2016-12-04 18:00:00, 13.35760, 109.26660,   0,  11,   1, -5.00, 1011.80, 15.00, 1,  11, 255, 0.000
64013000, 5301503, 2016-12-04 19:00:00, 13.35760, 109.26660,   0,  11,   1, -5.00, 1011.10, 15.00, 0,   4, 255, 0.000
64013000, 5301503, 2016-12-04 20:00:00, 13.35760, 109.26660,   0,  11,   1, -5.00, 1011.00, 15.00, 0,   8, 255, 0.000
64013000, 5301503, 2016-12-04 21:00:00, 13.35760, 109.26660,   0,  11,   2, -5.00, 1011.40, 15.00, 1,   7, 255, 0.000
64013000, 5301503, 2016-12-04 22:00:00, 13.35760, 109.26660,   0,  11,   1, -5.00, 1011.30, 15.00, 1,  10, 255, 0.000
64013000, 5301503, 2016-12-04 23:00:00, 13.35760, 109.26660,   0,  11,   1, -5.00, 1012.20, 15.00, 1,   9, 255, 0.000
64013000, 5301503, 2016-12-05 00:00:00, 13.35760, 109.26660,   0,  11,   1, -5.00, 1012.70, 15.00, 1,   2, 255, 0.000
64013000, 5301503, 2016-12-05 01:00:00, 13.35760, 109.26660,   0,  11,   1, -5.00, 1013.20, 15.00, 1,   7, 255, 0.000
64013000, 5301503, 2016-12-05 02:00:00, 13.35760, 109.26660,   0,  11,   2, -5.00, 1013.20, 15.00, 1,   7, 255, 0.000
64013000, 5301503, 2016-12-05 03:00:00, 13.35760, 109.26660,   0,  11,   1, -5.00, 1012.80, 15.00, 0,  28, 255, 0.000
64013000, 5301503, 2016-12-05 04:00:00, 13.35760, 109.26660,   0,  10,   1, -5.00, 1012.60, 15.00, 1,   8, 255, 0.000
64013000, 5301503, 2016-12-05 05:00:00, 13.35760, 109.26660,   0,  11,   1, -5.00, 1011.60, 15.00, 0,  12, 255, 0.000
64013000, 5301503, 2016-12-05 06:00:00, 13.35760, 109.26660,   0,  10,   1, -5.00, 1011.40, 15.00, 0,   3, 255, 0.000
64013000, 5301503, 2016-12-05 07:00:00, 13.35760, 109.26660,   0,  12,   2, -5.00, 1010.80, 15.00, 0,  10, 255, 0.000
64013000, 5301503, 2016-12-05 08:00:00, 13.35780, 109.26660,   0,  11,   2, -5.00, 1010.30, 15.00, 0,   8, 255, 0.000
64013000, 5301503, 2016-12-05 09:00:00, 13.35760, 109.26660,   0,  11,   1, -5.00, 1010.60, 15.00, 1,   1, 255, 0.000
64013000, 5301503, 2016-12-05 10:00:00, 13.35760, 109.26660,   0,  11,   1, -5.00, 1011.00, 15.00, 0,   4, 255, 0.000
64013000, 5301503, 2016-12-05 11:00:00, 13.35760, 109.26660,   0,  10,   2, -5.00, 1011.70, 15.00, 0,   7, 255, 0.000
64013000, 5301503, 2016-12-05 12:00:00, 13.35760, 109.26660,   0,  11,   1, -5.00, 1012.40, 15.00, 0,   8, 255, 0.000
64013000, 5301503, 2016-12-05 13:00:00, 13.35760, 109.26660,   0,  11,   1, -5.00, 1013.20, 15.00, 1,  21, 255, 0.000
64013000, 5301503, 2016-12-05 14:00:00, 13.35760, 109.26660,   0,  12,   1, -5.00, 1013.70, 15.00, 1,  11, 255, 0.000
64013000, 5301503, 2016-12-05 15:00:00, 13.35760, 109.26660,   0,  10,   1, -5.00, 1013.80, 15.00, 0,  25, 255, 0.000
64013000, 5301503, 2016-12-05 16:00:00, 13.35760, 109.26660,   0,  10,   1, -5.00, 1013.70, 15.00, 1,   8, 255, 0.000
64013000, 5301503, 2016-12-05 17:00:00, 13.35760, 109.26660,   0,  11,   1, -5.00, 1013.50, 14.80, 0,  11, 255, 0.000
64013000, 5301503, 2016-12-05 18:00:00, 13.35760, 109.26660,   0,  10,   1, -5.00, 1013.60, 14.80, 1,   9, 255, 0.000
64013000, 5301503, 2016-12-05 19:00:00, 13.35760, 109.26660,   0,  12,   1, -5.00, 1013.20, 14.80, 1,   8, 255, 0.000
64013000, 5301503, 2016-12-05 20:00:00, 13.35760, 109.26660,   0,  11,   1, -5.00, 1012.70, 14.80, 0,  11, 255, 0.000
64013000, 5301503, 2016-12-05 21:00:00, 13.35760, 109.26660,   0,  11,   1, -5.00, 1012.60, 14.80, 0,   8, 255, 0.000
64013000, 5301503, 2016-12-05 22:00:00, 13.35760, 109.26660,   0,  12,   1, -5.00, 1012.70, 14.80, 1,   1, 255, 0.000
64013000, 5301503, 2016-12-05 23:00:00, 13.35760, 109.26660,   0,  11,   1, -5.00, 1013.30, 14.80, 0,   8, 255, 0.000
64013000, 5301503, 2016-12-06 00:00:00, 13.35760, 109.26660,   0,  11,   1, -5.00, 1013.50, 14.80, 0,   8, 255, 0.000
64013000, 5301503, 2016-12-06 01:00:00, 13.35760, 109.26660,   0,  11,   1, -5.00, 1014.60, 14.80, 0,  11, 255, 0.000
64013000, 5301503, 2016-12-06 02:00:00, 13.35760, 109.26660,   0,  12,   1, -5.00, 1015.30, 14.80, 0,  12, 255, 0.000
64013000, 5301503, 2016-12-06 03:00:00, 13.35760, 109.26660,   0,  11,   1, -5.00, 1015.40, 14.80, 0,  20, 255, 0.000
64013000, 5301503, 2016-12-06 04:00:00, 13.35760, 109.26660,   0,  11,   1, -5.00, 1014.10, 14.80, 1,   1, 255, 0.000
64013000, 5301503, 2016-12-06 05:00:00, 13.35760, 109.26660,   0,  10,   1, -5.00, 1012.90, 14.80, 1,   8, 255, 0.000
64013000, 5301503, 2016-12-06 06:00:00, 13.35760, 109.26660,   0,  11,   1, -5.00, 1011.90, 14.80, 1,   7, 255, 0.000
64013000, 5301503, 2016-12-06 07:00:00, 13.35760, 109.26660,   0,  12,   1, -5.00, 1011.40, 14.80, 0,  10, 255, 0.000
64015370, 5301502, 2016-12-03 00:00:00, 10.87140, 109.02120,   0,  11,   1, 26.72, 1011.80, 13.80, 0, 101, 255, 0.000
64015370, 5301502, 2016-12-03 01:00:00, 10.84500, 109.01500,   0,  11,   1, 26.74, 1012.30, 13.80, 0,  10, 255, 0.000
64015370, 5301502, 2016-12-03 02:00:00, 10.81920, 109.00280,   0,  11,   1, 26.76, 1012.30, 13.80, 0,   8, 255, 0.000
64015370, 5301502, 2016-12-03 03:00:00, 10.79240, 108.98600,   0,  12,   1, 26.80, 1012.20, 13.80, 0,  12, 255, 0.000
64015370, 5301502, 2016-12-03 04:00:00, 10.76740, 108.96820,   0,  12,   1, 26.84, 1011.90, 13.80, 0,  10, 255, 0.000
64015370, 5301502, 2016-12-03 05:00:00, 10.74580, 108.95080,   0,  11,   1, 26.84, 1010.90, 13.80, 0,   8, 255, 0.000
64015370, 5301502, 2016-12-03 06:00:00, 10.72780, 108.93360,   0,  10,   1, 26.82, 1010.00, 13.80, 0,   8, 255, 0.000
64015370, 5301502, 2016-12-03 07:00:00, 10.70940, 108.91600,   0,  11,   1, 26.86, 1009.30, 13.80, 0,  10, 255, 0.000
64015370, 5301502, 2016-12-03 08:00:00, 10.69280, 108.89640,   0,  11,   2, 26.89, 1008.50, 13.80, 0,   8, 255, 0.000
64015370, 5301502, 2016-12-03 09:00:00, 10.67960, 108.87880,   0,  11,   1, 26.76, 1008.70, 13.80, 0,  10, 255, 0.000
64015370, 5301502, 2016-12-03 10:00:00, 10.66460, 108.85920,   0,  12,   2, 26.77, 1009.10, 13.80, 0,  11, 255, 0.000
64015370, 5301502, 2016-12-03 11:00:00, 10.64840, 108.83600,   0,  11,   1, 26.78, 1009.70, 13.80, 0,  11, 255, 0.000
64015370, 5301502, 2016-12-03 12:00:00, 10.63100, 108.81160,   0,  12,   1, 26.77, 1010.30, 13.80, 0,  10, 255, 0.000
64015370, 5301502, 2016-12-03 13:00:00, 10.61280, 108.78920,   0,  11,   1, 26.77, 1010.70, 13.80, 0,  11, 255, 0.000
64015370, 5301502, 2016-12-03 14:00:00, 10.59400, 108.76740,   0,  11,   1, 26.76, 1011.00, 13.80, 0,  17, 255, 0.000
64015370, 5301502, 2016-12-03 15:00:00, 10.57420, 108.74800,   0,  12,   1, 26.76, 1011.20, 13.80, 0,  12, 255, 0.000
64015370, 5301502, 2016-12-03 16:00:00, 10.55520, 108.72700,   0,  12,   1, 26.75, 1011.20, 13.80, 0,   7, 255, 0.000
64015370, 5301502, 2016-12-03 17:00:00, 10.53640, 108.70700,   0,  11,   1, 26.74, 1011.00, 13.80, 0,  11, 255, 0.000
64015370, 5301502, 2016-12-03 18:00:00, 10.51820, 108.69060,   0,  11,   1, 26.76, 1010.20, 13.80, 0,   7, 255, 0.000
64015370, 5301502, 2016-12-03 19:00:00, 10.49960, 108.67760,   0,  12,   1, 26.74, 1009.70, 13.80, 0,   8, 255, 0.000
64015370, 5301502, 2016-12-03 20:00:00, 10.48280, 108.66640,   0,  12,   1, 26.75, 1009.80, 13.80, 0,  10, 255, 0.000
64015370, 5301502, 2016-12-03 21:00:00, 10.46700, 108.66060,   0,  10,   1, 26.76, 1010.00, 13.80, 0,  19, 255, 0.000
64015370, 5301502, 2016-12-03 22:00:00, 10.45240, 108.65720,   0,  11,   1, 26.75, 1010.50, 13.80, 0,   7, 255, 0.000
64015370, 5301502, 2016-12-03 23:00:00, 10.43860, 108.65620,   0,  11,   2, 26.80, 1011.00, 13.80, 0,   8, 255, 0.000
64015370, 5301502, 2016-12-04 00:00:00, 10.42820, 108.65440,   0,  11,   1, 26.80, 1011.70, 13.80, 0,   8, 255, 0.000
64015370, 5301502, 2016-12-04 01:00:00, 10.41400, 108.65120,   0,  11,   1, 26.83, 1012.30, 13.80, 0,  11, 255, 0.000
64015370, 5301502, 2016-12-04 02:00:00, 10.39880, 108.64540,   0,  11,   1, 26.84, 1012.90, 13.80, 0,  11, 255, 0.000
64015370, 5301502, 2016-12-04 03:00:00, 10.38160, 108.63480,   0,  11,   1, 26.84, 1011.90, 13.40, 0,  16, 255, 0.000
